Starlink 33629

operational
NORAD ID: 63388 Int'l Des: 2025-063 Owner: SPXS Country: US Constellation: starlink
LEOCIRCULAR

Starlink 33629について

説明を読み込み中...

リアルタイム位置

3D地球を読み込み中...

次回通過

高度履歴

Altitude vs Time

uPlot chart will show altitude changes over time

軌道要素

1 63388U 25063AB 26062.42150525 .00021073 00000-0 72094-3 0 9992
2 63388 53.1592 79.1679 0001729 68.5664 291.5521 15.30229413 53832
Epoch: Mar 3, 2026 • Age: 28 hours

現在のステータス

高度 477.0 km
速度 7.63 km/s
衛星直下点 37.42°N, 104.97°W
打ち上げ日 Mar 26, 2025
運用期間 0.9 years
タイプ internet

技術仕様

分類 Payload
質量 575.00 kg
乾燥質量 530.00 kg
総質量 575.00 kg
長さ 0.30 m
直径 4.10 m
スパン 29.00 m
形状 Box + pan
製造者 SPXS
バスタイプ Starlink V2MO
フェーズステータス In Orbit
所有者/国 SPXS/US

大規模コンステレーション

Loading constellations...